* Astronomy

Members Login
Username 
 
Password 
    Remember Me  
Post Info TOPIC: Asteroid 2011 CG42


L

Posts: 131433
Date:
Asteroid 2011 CG42
Permalink  
 


Orbital elements:
2011 CG42 Earth MOID = 0.0777 AU
Epoch 2011 Feb. 8.0 TT = JDT 2455600.5 MPC
M 14.84269 (2000.0) P Q
n 0.72219857 Peri. 337.51727 -0.33784954 -0.89126115
a 1.2303584 Node 130.76771 +0.91284438 -0.38858381
e 0.1439519 Incl. 23.54211 +0.22928765 +0.23378661
P 1.36 H 21.4 G 0.15 U 9

MPEC 2011 - C67


__________________
Page 1 of 1  sorted by
 
Quick Reply

Please log in to post quick replies.



Create your own FREE Forum
Report Abuse
Powered by ActiveBoard